KUIPER-00180

Last updated on Sun Mar 15 2026 00:02:06 GMT+0000 (Coordinated Universal Time)

1 67768U 26030E 26073.57386224 .00037378 00000+0 12644-2 0 9996 2 67768 51.8797 196.2851 0015161 83.4200 276.8509 15.30155337 5832
UTC large
Height (km)
Speed (km/s)
/
Latitude / Longitude
Inclination (degrees)
Orbital Period (minutes)
Azimuth
Elevation
Range (km)
Doppler Factor

Next 0 passes for location: London (51.5072 / 0.1276)

Sorry there are no passes over London.